Flag for Australia Weather past 2 weeks in Traralgon, Victoria, Australia

Now
44 °F

Fog.


Feels Like: 36 °F
Forecast: 43 / 57 °F
Wind: 16 mph from West

Location: Latrobe Valley Airport

Current Time: Oct 1, 2014 at 4:45:24 AM

Latest Report: Oct 1, 2014 at 3:00 AM


Visibility: N/A

Pressure: 29.97 "Hg

Humidity: 96%

Dew point: 43 °F

Location of TraralgonLocation

Historic Weather in Traralgon — Graph

°F

Traralgon temperature yesterday

Maximum temperature yesterday: 72 °F (at 2:00 PM)
Minimum temperature yesterday: 42 °F (at 6:00 AM)
Average temperature yesterday: 54 °F

Past Weeks' High & Low Weather Summary

 TemperatureHumidityPressure
High80 °F (Sep 28, 3:00 PM)100% (Sep 16, 8:00 AM)30.47 "Hg (Sep 16, 8:00 AM)
Low35 °F (Sep 22, 6:00 AM)33% (Sep 23, 5:00 PM)29.57 "Hg (Sep 30, 3:00 PM)
Average54 °F83%30.07 "Hg
* Reported Sep 16 3:00 AM — Oct 1 3:00 AM, Traralgon, Weather by CustomWeather, © 2014

Note: Actual official high and low records may vary slightly from our data, if they occured in-between our weather recording intervals... More about our weather records

Advertising

Traralgon weather history for previous 24 hours

 ConditionsComfort  
Time TempWeatherWind HumidityBarometerVisibility
3:00 AM
Oct 1
44 °FFog.16 mph96%29.97 "HgN/A
2:00 AM43 °FQuite cool.18 mph91%29.95 "HgN/A
12:00 AM44 °FPassing clouds.21 mph86%29.91 "HgN/A
11:00 PM
Sep 30
47 °FCool.15 mph83%29.89 "HgN/A
9:00 PM47 °FCool.17 mph85%29.85 "HgN/A
8:00 PM47 °FCool.21 mph92%29.83 "HgN/A
6:00 PM47 °FOvercast.18 mph96%29.82 "Hg3 mi
5:00 PM51 °FCool.31 mph90%29.74 "HgN/A
3:00 PM70 °FPartly sunny.24 mph42%29.57 "HgN/A
2:00 PM72 °FMild.26 mph37%29.59 "HgN/A
12:00 PM71 °FMild.17 mph43%29.65 "HgN/A
11:00 AM69 °FMild.21 mph46%29.71 "HgN/A
9:00 AM64 °FMild.15 mph66%29.78 "HgN/A
8:00 AM55 °FCool.1 mph100%29.79 "HgN/A
6:00 AM42 °FQuite cool.No wind100%29.78 "HgN/A
5:00 AM43 °FQuite cool.1 mph100%29.79 "HgN/A
Weather by CustomWeather, © 2014

See weather overviewHow to use our weather pages